Location: Unspecified
(47.6577°N, 23.5639°E)
Time: 02:30:08
(UTC+03:00)

ISS - Pass Details

Date: 12 February 2017
Orbit: 401 x 408 km, 51.6° (Epoch: 20 October)

Event Time Altitude Azimuth Distance (km) Brightness Sun altitude
Rises 19:56:22 0° 289° (WNW) 2,354 1.4 -22.7°
Reaches altitude 10° 19:58:43 10° 275° (W) 1,482 0.1 -23.1°
Maximum altitude 20:01:26 24° 220° (SW) 907 -1.8 -23.6°
Enters shadow 20:01:33 24° 216° (SW) 908 -1.8 -23.6°
